Starlink 1454

operational
NORAD ID: 45671 Int'l Des: 2020-035 Owner: SPXS Country: US Constellation: starlink
LEOCIRCULARSTARLINK_TYPE

About Starlink 1454

Description loading...

Live Position

Loading 3D Globe...

Upcoming Passes

Altitude History

Altitude vs Time

uPlot chart will show altitude changes over time

Two-Line Element Set

1 45671U 20035Q 26036.75002315 .00151903 00000-0 31575-2 0 9995
2 45671 53.0539 205.5961 0002599 285.9000 224.3663 15.44627558 5713
Epoch: Feb 5, 2026 • Age: 6 hours

Current Status

Altitude 433.3 km
Velocity 7.65 km/s
Sub-Earth Point 5.75°N, 120.77°W
Launch Date Jun 4, 2020
Age 5.6 years
Type internet

Technical Details

Classification Payload
Mass 260.00 kg
Dry Mass 248.00 kg
Total Mass 260.00 kg
Length 0.20 m
Diameter 2.80 m
Span 9.00 m
Shape Box + pan
Manufacturer SPXS
Bus Type Starlink
Phase Status In Orbit
Owner/State SPXS/US

Large Constellations

Loading constellations...